Time,TemperatureF,DewpointF,PressureIn,WindDirection,WindDirectionDegrees,WindSpeedMPH,WindSpeedGustMPH,Humidity,HourlyPrecipIn,Conditions,Clouds,dailyrainin,SoftwareType,DateUTC
2013-05-11 00:03:00,48.0,47.0,29.95,SSE,151,0.0,4.0,97,0.00,,,-99.99,,2013-05-11 04:03:00,
2013-05-11 00:12:00,48.0,47.0,29.95,SSE,151,0.0,4.0,97,0.00,,,-99.99,,2013-05-11 04:12:00,
2013-05-11 00:23:00,48.0,47.0,29.96,South,175,0.0,4.0,97,0.00,,,-99.99,,2013-05-11 04:23:00,
2013-05-11 00:33:00,48.0,47.0,29.96,South,180,0.0,4.0,97,0.00,,,-99.99,,2013-05-11 04:33:00,
2013-05-11 00:43:00,48.0,47.0,29.96,South,187,0.0,4.0,97,0.00,,,-99.99,,2013-05-11 04:43:00,
2013-05-11 00:52:00,48.0,47.0,29.96,South,187,0.0,4.0,97,0.00,,,-99.99,,2013-05-11 04:52:00,
2013-05-11 01:02:00,48.0,47.0,29.96,South,176,1.0,5.0,97,0.00,,,-99.99,,2013-05-11 05:02:00,
2013-05-11 01:12:00,48.0,47.0,29.96,South,176,1.0,5.0,97,0.00,,,-99.99,,2013-05-11 05:12:00,
2013-05-11 01:22:00,47.0,46.0,29.96,South,176,1.0,5.0,97,0.00,,,-99.99,,2013-05-11 05:22:00,
2013-05-11 01:32:00,47.0,46.0,29.96,South,182,0.0,4.0,97,0.00,,,-99.99,,2013-05-11 05:32:00,
2013-05-11 01:42:00,47.0,46.0,29.96,South,182,0.0,4.0,97,0.00,,,-99.99,,2013-05-11 05:42:00,
2013-05-11 01:52:00,47.0,46.0,29.95,South,169,2.0,4.0,98,0.00,,,-99.99,,2013-05-11 05:52:00,
2013-05-11 02:02:00,47.0,46.0,29.95,South,184,0.0,4.0,97,0.00,,,-99.99,,2013-05-11 06:02:00,
2013-05-11 02:12:00,47.0,46.0,29.95,South,184,0.0,4.0,97,0.00,,,-99.99,,2013-05-11 06:12:00,
2013-05-11 02:22:00,47.0,46.0,29.95,South,184,0.0,1.0,98,0.00,,,-99.99,,2013-05-11 06:22:00,
2013-05-11 02:32:00,47.0,46.0,29.95,South,184,0.0,4.0,98,0.00,,,-99.99,,2013-05-11 06:32:00,
2013-05-11 02:42:00,47.0,46.0,29.95,SW,224,0.0,4.0,98,0.00,,,-99.99,,2013-05-11 06:42:00,
2013-05-11 02:52:00,47.0,46.0,29.95,SW,224,0.0,4.0,98,0.00,,,-99.99,,2013-05-11 06:52:00,
2013-05-11 03:02:00,47.0,46.0,29.94,SW,224,0.0,2.0,98,0.00,,,-99.99,,2013-05-11 07:02:00,
2013-05-11 03:12:00,47.0,46.0,29.94,SW,224,0.0,2.0,98,0.00,,,-99.99,,2013-05-11 07:12:00,
2013-05-11 03:21:00,47.0,46.0,29.94,SW,224,0.0,2.0,98,0.00,,,-99.99,,2013-05-11 07:21:00,
2013-05-11 03:32:00,47.0,46.0,29.94,SSE,157,1.0,4.0,98,0.00,,,-99.99,,2013-05-11 07:32:00,
2013-05-11 03:42:00,47.0,46.0,29.94,SSE,157,1.0,4.0,98,0.00,,,-99.99,,2013-05-11 07:42:00,
2013-05-11 03:52:00,47.0,46.0,29.93,South,178,0.0,4.0,98,0.00,,,-99.99,,2013-05-11 07:52:00,
2013-05-11 04:02:00,47.0,46.0,29.93,SE,137,1.0,5.0,98,0.00,,,-99.99,,2013-05-11 08:02:00,
2013-05-11 04:12:00,47.0,46.0,29.93,SE,137,1.0,5.0,98,0.00,,,-99.99,,2013-05-11 08:12:00,
2013-05-11 04:21:00,47.0,46.0,29.93,South,189,0.0,5.0,98,0.00,,,-99.99,,2013-05-11 08:21:00,
2013-05-11 04:32:00,47.0,46.0,29.93,SE,140,3.0,5.0,98,0.00,,,-99.99,,2013-05-11 08:32:00,
2013-05-11 04:42:00,47.0,46.0,29.93,South,172,0.0,7.0,98,0.00,,,-99.99,,2013-05-11 08:42:00,
2013-05-11 04:52:00,47.0,46.0,29.93,South,172,0.0,7.0,98,0.00,,,-99.99,,2013-05-11 08:52:00,
2013-05-11 05:01:00,46.0,45.0,29.93,South,189,0.0,6.0,98,0.00,,,-99.99,,2013-05-11 09:01:00,
2013-05-11 05:11:00,46.0,45.0,29.93,South,189,0.0,6.0,98,0.00,,,-99.99,,2013-05-11 09:11:00,
2013-05-11 05:21:00,46.0,45.0,29.92,South,172,0.0,6.0,98,0.00,,,-99.99,,2013-05-11 09:21:00,
2013-05-11 05:32:00,46.0,45.0,29.93,SSE,149,2.0,5.0,98,0.00,,,-99.99,,2013-05-11 09:32:00,
2013-05-11 05:42:00,46.0,45.0,29.93,East,98,0.0,6.0,98,0.00,,,-99.99,,2013-05-11 09:42:00,
2013-05-11 05:53:00,46.0,45.0,29.93,East,98,0.0,6.0,98,0.00,,,-99.99,,2013-05-11 09:53:00,
2013-05-11 06:03:00,46.0,45.0,29.93,South,189,0.0,8.0,98,0.00,,,-99.99,,2013-05-11 10:03:00,
2013-05-11 06:12:00,46.0,45.0,29.93,South,189,0.0,8.0,98,0.00,,,-99.99,,2013-05-11 10:12:00,
2013-05-11 06:22:00,46.0,45.0,29.93,SW,234,0.0,6.0,98,0.00,,,-99.99,,2013-05-11 10:22:00,
2013-05-11 06:33:00,46.0,45.0,29.93,SE,140,0.0,8.0,98,0.00,,,-99.99,,2013-05-11 10:33:00,
2013-05-11 06:42:00,46.0,45.0,29.92,South,188,0.0,8.0,98,0.00,,,-99.99,,2013-05-11 10:42:00,
2013-05-11 06:52:00,46.0,45.0,29.92,South,188,0.0,8.0,98,0.00,,,-99.99,,2013-05-11 10:52:00,
2013-05-11 07:02:00,46.0,45.0,29.92,SW,216,0.0,9.0,98,0.00,,,-99.99,,2013-05-11 11:02:00,
2013-05-11 07:12:00,46.0,45.0,29.92,SW,216,0.0,9.0,98,0.00,,,-99.99,,2013-05-11 11:12:00,
2013-05-11 07:22:00,47.0,46.0,29.92,SSE,166,0.0,8.0,98,0.00,,,-99.99,,2013-05-11 11:22:00,
2013-05-11 07:32:00,47.0,46.0,29.92,SSW,192,0.0,11.0,98,0.00,,,-99.99,,2013-05-11 11:32:00,
2013-05-11 07:42:00,47.0,47.0,29.91,SSW,200,1.0,8.0,99,0.00,,,-99.99,,2013-05-11 11:42:00,
2013-05-11 07:51:00,47.0,47.0,29.91,SSW,200,1.0,8.0,99,0.00,,,-99.99,,2013-05-11 11:51:00,
2013-05-11 08:01:00,47.0,46.0,29.92,South,191,4.0,11.0,98,0.00,,,-99.99,,2013-05-11 12:01:00,
2013-05-11 08:11:00,47.0,46.0,29.92,South,191,4.0,11.0,98,0.00,,,-99.99,,2013-05-11 12:11:00,
2013-05-11 08:22:00,47.0,47.0,29.92,West,261,0.0,14.0,99,0.00,,,-99.99,,2013-05-11 12:22:00,
2013-05-11 08:32:00,47.0,47.0,29.91,SW,234,4.0,10.0,99,0.00,,,-99.99,,2013-05-11 12:32:00,
2013-05-11 08:42:00,47.0,47.0,29.91,SE,136,1.0,10.0,99,0.00,,,-99.99,,2013-05-11 12:42:00,
2013-05-11 08:52:00,47.0,47.0,29.91,SE,136,1.0,10.0,99,0.00,,,-99.99,,2013-05-11 12:52:00,
2013-05-11 09:02:00,47.0,46.0,29.90,SSW,210,7.0,14.0,98,0.00,,,-99.99,,2013-05-11 13:02:00,
2013-05-11 09:11:00,47.0,46.0,29.90,SSW,210,7.0,14.0,98,0.00,,,-99.99,,2013-05-11 13:11:00,
2013-05-11 09:21:00,47.0,46.0,29.90,SE,124,0.0,13.0,98,0.00,,,-99.99,,2013-05-11 13:21:00,
2013-05-11 09:32:00,47.0,46.0,29.89,ESE,117,2.0,12.0,98,0.00,,,-99.99,,2013-05-11 13:32:00,
2013-05-11 09:42:00,47.0,46.0,29.89,South,183,4.0,13.0,98,0.00,,,-99.99,,2013-05-11 13:42:00,
2013-05-11 09:52:00,47.0,46.0,29.89,South,183,4.0,13.0,98,0.00,,,-99.99,,2013-05-11 13:52:00,
2013-05-11 10:02:00,47.0,46.0,29.87,SSE,160,11.0,11.0,98,0.00,,,-99.99,,2013-05-11 14:02:00,
2013-05-11 10:11:00,47.0,46.0,29.87,SSE,160,11.0,11.0,98,0.00,,,-99.99,,2013-05-11 14:11:00,
2013-05-11 10:21:00,47.0,46.0,29.87,South,182,8.0,13.0,98,0.00,,,-99.99,,2013-05-11 14:21:00,
2013-05-11 10:32:00,47.0,46.0,29.87,South,176,2.0,11.0,98,0.00,,,-99.99,,2013-05-11 14:32:00,
2013-05-11 10:42:00,47.0,46.0,29.87,South,176,2.0,11.0,98,0.00,,,-99.99,,2013-05-11 14:42:00,
2013-05-11 10:51:00,47.0,46.0,29.91,SW,219,5.0,11.0,98,0.00,,,-99.99,,2013-05-11 14:51:00,
2013-05-11 11:01:00,47.0,46.0,29.90,South,176,5.0,10.0,98,0.00,,,-99.99,,2013-05-11 15:01:00,
2013-05-11 11:11:00,47.0,46.0,29.90,South,176,5.0,10.0,98,0.00,,,-99.99,,2013-05-11 15:11:00,
2013-05-11 11:21:00,47.0,46.0,29.87,SW,216,6.0,8.0,98,0.08,,,-99.99,,2013-05-11 15:21:00,
2013-05-11 11:32:00,47.0,46.0,29.86,South,191,1.0,10.0,98,0.14,,,-99.99,,2013-05-11 15:32:00,
2013-05-11 11:43:00,47.0,46.0,29.85,SSE,162,1.0,6.0,98,0.04,,,-99.99,,2013-05-11 15:43:00,
2013-05-11 11:53:00,47.0,46.0,29.85,SSE,162,1.0,6.0,98,0.04,,,-99.99,,2013-05-11 15:53:00,
2013-05-11 12:03:00,48.0,47.0,29.83,South,172,5.0,12.0,98,0.06,,,-99.99,,2013-05-11 16:03:00,
2013-05-11 12:12:00,48.0,47.0,29.83,South,172,5.0,12.0,98,0.06,,,-99.99,,2013-05-11 16:12:00,
2013-05-11 12:23:00,48.0,47.0,29.83,South,190,1.0,12.0,98,0.00,,,-99.99,,2013-05-11 16:23:00,
2013-05-11 12:33:00,48.0,47.0,29.83,South,169,8.0,10.0,98,0.00,,,-99.99,,2013-05-11 16:33:00,
2013-05-11 12:42:00,49.0,48.0,29.82,SSW,210,4.0,13.0,98,0.00,,,-99.99,,2013-05-11 16:42:00,
2013-05-11 12:52:00,49.0,48.0,29.82,SSW,210,4.0,13.0,98,0.00,,,-99.99,,2013-05-11 16:52:00,
2013-05-11 13:02:00,49.0,49.0,29.82,SE,135,5.0,12.0,99,0.00,,,-99.99,,2013-05-11 17:02:00,
2013-05-11 13:12:00,49.0,49.0,29.82,SE,135,5.0,12.0,99,0.00,,,-99.99,,2013-05-11 17:12:00,
2013-05-11 13:22:00,50.0,50.0,29.82,SSW,211,2.0,8.0,99,0.00,,,-99.99,,2013-05-11 17:22:00,
2013-05-11 13:32:00,50.0,50.0,29.81,WSW,257,0.0,5.0,99,0.00,,,-99.99,,2013-05-11 17:32:00,
2013-05-11 13:42:00,51.0,51.0,29.80,SSW,193,5.0,8.0,99,0.00,,,-99.99,,2013-05-11 17:42:00,
2013-05-11 13:52:00,51.0,51.0,29.80,SSW,193,5.0,8.0,99,0.00,,,-99.99,,2013-05-11 17:52:00,
2013-05-11 14:01:00,52.0,52.0,29.80,SSW,211,1.0,9.0,99,0.00,,,-99.99,,2013-05-11 18:01:00,
2013-05-11 14:12:00,52.0,52.0,29.80,SSW,211,1.0,9.0,99,0.00,,,-99.99,,2013-05-11 18:12:00,
2013-05-11 14:21:00,52.0,52.0,29.79,SE,140,5.0,11.0,99,0.00,,,-99.99,,2013-05-11 18:21:00,
2013-05-11 14:32:00,53.0,53.0,29.79,SW,221,6.0,13.0,99,0.00,,,-99.99,,2013-05-11 18:32:00,
2013-05-11 14:42:00,53.0,53.0,29.78,SSE,151,1.0,12.0,99,0.00,,,-99.99,,2013-05-11 18:42:00,
2013-05-11 14:52:00,53.0,53.0,29.78,SSE,151,1.0,12.0,99,0.00,,,-99.99,,2013-05-11 18:52:00,
2013-05-11 15:02:00,54.0,54.0,29.78,South,177,9.0,16.0,99,0.00,,,-99.99,,2013-05-11 19:02:00,
2013-05-11 15:11:00,54.0,54.0,29.78,South,177,9.0,16.0,99,0.00,,,-99.99,,2013-05-11 19:11:00,
2013-05-11 15:21:00,55.0,54.0,29.78,SE,145,3.0,18.0,98,0.00,,,-99.99,,2013-05-11 19:21:00,
2013-05-11 15:32:00,55.0,54.0,29.77,WSW,243,2.0,11.0,98,0.00,,,-99.99,,2013-05-11 19:32:00,
2013-05-11 15:42:00,55.0,54.0,29.77,WSW,243,2.0,11.0,98,0.00,,,-99.99,,2013-05-11 19:42:00,
2013-05-11 15:53:00,55.0,54.0,29.77,WSW,239,1.0,19.0,96,0.00,,,-99.99,,2013-05-11 19:53:00,
2013-05-11 16:02:00,55.0,54.0,29.76,SW,222,2.0,16.0,96,0.00,,,-99.99,,2013-05-11 20:02:00,
2013-05-11 16:12:00,55.0,54.0,29.76,SW,222,2.0,16.0,96,0.00,,,-99.99,,2013-05-11 20:12:00,
2013-05-11 16:22:00,55.0,54.0,29.77,SW,216,4.0,13.0,95,0.00,,,-99.99,,2013-05-11 20:22:00,
2013-05-11 16:32:00,55.0,54.0,29.77,SE,135,2.0,12.0,95,0.00,,,-99.99,,2013-05-11 20:32:00,
2013-05-11 16:42:00,54.0,53.0,29.77,SSW,199,8.0,13.0,95,0.00,,,-99.99,,2013-05-11 20:42:00,
2013-05-11 16:52:00,54.0,53.0,29.77,SSW,199,8.0,13.0,95,0.00,,,-99.99,,2013-05-11 20:52:00,
2013-05-11 17:02:00,54.0,53.0,29.76,South,189,2.0,13.0,96,0.00,,,-99.99,,2013-05-11 21:02:00,
2013-05-11 17:11:00,54.0,53.0,29.76,South,189,2.0,13.0,96,0.00,,,-99.99,,2013-05-11 21:11:00,
2013-05-11 17:22:00,54.0,53.0,29.76,SSW,208,4.0,7.0,96,0.00,,,-99.99,,2013-05-11 21:22:00,
2013-05-11 17:33:00,54.0,53.0,29.76,SSW,209,5.0,9.0,96,0.00,,,-99.99,,2013-05-11 21:33:00,
2013-05-11 17:43:00,54.0,53.0,29.76,SSW,209,5.0,9.0,96,0.00,,,-99.99,,2013-05-11 21:43:00,
2013-05-11 17:53:00,54.0,53.0,29.76,South,189,2.0,11.0,97,0.00,,,-99.99,,2013-05-11 21:53:00,
2013-05-11 18:02:00,54.0,53.0,29.76,SW,219,2.0,9.0,97,0.04,,,-99.99,,2013-05-11 22:02:00,
2013-05-11 18:13:00,54.0,53.0,29.76,SW,219,2.0,9.0,97,0.04,,,-99.99,,2013-05-11 22:13:00,
2013-05-11 18:23:00,54.0,53.0,29.76,SSE,161,1.0,12.0,97,0.00,,,-99.99,,2013-05-11 22:23:00,
2013-05-11 18:33:00,54.0,53.0,29.76,South,180,7.0,11.0,97,0.00,,,-99.99,,2013-05-11 22:33:00,
2013-05-11 18:42:00,54.0,53.0,29.76,South,180,7.0,11.0,97,0.00,,,-99.99,,2013-05-11 22:42:00,
2013-05-11 18:52:00,54.0,53.0,29.76,South,183,6.0,11.0,97,0.00,,,-99.99,,2013-05-11 22:52:00,
2013-05-11 19:02:00,54.0,53.0,29.75,SSW,210,4.0,15.0,97,0.00,,,-99.99,,2013-05-11 23:02:00,
2013-05-11 19:12:00,54.0,53.0,29.75,SSW,210,4.0,15.0,97,0.00,,,-99.99,,2013-05-11 23:12:00,
2013-05-11 19:22:00,54.0,53.0,29.75,SSE,155,2.0,9.0,97,0.00,,,-99.99,,2013-05-11 23:22:00,
2013-05-11 19:32:00,55.0,54.0,29.75,SSE,149,3.0,13.0,98,0.00,,,-99.99,,2013-05-11 23:32:00,
2013-05-11 19:42:00,54.0,53.0,29.74,SSW,212,0.0,6.0,98,0.00,,,-99.99,,2013-05-11 23:42:00,
2013-05-11 19:52:00,54.0,53.0,29.74,SSW,212,0.0,6.0,98,0.00,,,-99.99,,2013-05-11 23:52:00,
2013-05-11 20:01:00,54.0,53.0,29.74,SW,223,0.0,7.0,98,0.00,,,-99.99,,2013-05-12 00:01:00,
2013-05-11 20:12:00,54.0,53.0,29.74,SW,223,0.0,7.0,98,0.00,,,-99.99,,2013-05-12 00:12:00,
2013-05-11 20:21:00,55.0,54.0,29.73,SSW,203,2.0,6.0,98,0.00,,,-99.99,,2013-05-12 00:21:00,
2013-05-11 20:32:00,55.0,54.0,29.73,SSW,200,1.0,12.0,98,0.00,,,-99.99,,2013-05-12 00:32:00,
2013-05-11 20:42:00,55.0,54.0,29.73,SSE,166,2.0,9.0,98,0.00,,,-99.99,,2013-05-12 00:42:00,
2013-05-11 20:52:00,55.0,54.0,29.73,SSE,166,2.0,9.0,98,0.00,,,-99.99,,2013-05-12 00:52:00,
2013-05-11 21:01:00,55.0,54.0,29.73,SSW,196,4.0,12.0,98,0.00,,,-99.99,,2013-05-12 01:01:00,
2013-05-11 21:11:00,55.0,54.0,29.73,SSW,196,4.0,12.0,98,0.00,,,-99.99,,2013-05-12 01:11:00,
2013-05-11 21:21:00,55.0,54.0,29.73,WSW,248,2.0,12.0,98,0.00,,,-99.99,,2013-05-12 01:21:00,
2013-05-11 21:32:00,55.0,54.0,29.74,NW,326,3.0,12.0,97,0.00,,,-99.99,,2013-05-12 01:32:00,
2013-05-11 21:42:00,55.0,54.0,29.74,ESE,117,1.0,14.0,97,0.00,,,-99.99,,2013-05-12 01:42:00,
2013-05-11 21:52:00,55.0,54.0,29.74,ESE,117,1.0,14.0,97,0.00,,,-99.99,,2013-05-12 01:52:00,
2013-05-11 22:01:00,55.0,54.0,29.74,SW,222,4.0,11.0,97,0.00,,,-99.99,,2013-05-12 02:01:00,
2013-05-11 22:12:00,55.0,54.0,29.74,SW,222,4.0,11.0,97,0.00,,,-99.99,,2013-05-12 02:12:00,
2013-05-11 22:22:00,54.0,53.0,29.74,South,180,2.0,12.0,97,0.00,,,-99.99,,2013-05-12 02:22:00,
2013-05-11 22:32:00,54.0,53.0,29.73,SSW,199,2.0,15.0,97,0.00,,,-99.99,,2013-05-12 02:32:00,
2013-05-11 22:42:00,54.0,53.0,29.73,SE,144,0.0,11.0,97,0.00,,,-99.99,,2013-05-12 02:42:00,
2013-05-11 22:52:00,54.0,53.0,29.73,SE,144,0.0,11.0,97,0.00,,,-99.99,,2013-05-12 02:52:00,
2013-05-11 23:02:00,54.0,53.0,29.73,SE,144,0.0,11.0,97,0.00,,,-99.99,,2013-05-12 03:02:00,
2013-05-11 23:11:00,54.0,53.0,29.74,SSW,202,0.0,7.0,97,0.00,,,-99.99,,2013-05-12 03:11:00,
2013-05-11 23:22:00,54.0,53.0,29.74,SSW,202,0.0,7.0,97,0.00,,,-99.99,,2013-05-12 03:22:00,
2013-05-11 23:33:00,54.0,53.0,29.73,South,190,1.0,7.0,98,0.00,,,-99.99,,2013-05-12 03:33:00,
2013-05-11 23:43:00,54.0,53.0,29.73,South,190,1.0,7.0,98,0.00,,,-99.99,,2013-05-12 03:43:00,
2013-05-11 23:53:00,54.0,53.0,29.73,South,189,0.0,1.0,98,0.00,,,-99.99,,2013-05-12 03:53:00,